Погода в Оленеке

Погода в Оленеке : погода сейчас, прогноз погоды и архив. Всё, что Вы хотите узнать о погоде в Оленеке!

Хотите узнать прогноз погоды в Оленеке? Тогда Вам сюда: Погода в Оленеке

Поиск расширенной информации на нашем сайте:

Другие новости

Новости СМИ2

Главная страница сайта

Новости сайта

02.10.2013

Напоминаем, что на нашем новом сайте вы можете получить высокодетализированные прогнозы погоды по пунктам России, СНГ и мира (включающие важные для авиации метеовеличины, такие как направление и скорость ветра, видимость, явления погоды, количество и форма облачности, нижняя и верхняя граница облачности), а также ознакомиться с разнообразными материалами по авиационной метеорологии и подборкой полезных ссылок на эту тему.

Сайт Метеоцентр.Азия посвящён разработке технологий оптимизации авиаметеорологического обслуживания, включая проектирование и перспективное создание нескольких автоматизированных авиаметеорологических систем:
- система выпуска высокодетальных прогностических карт явлений погоды для нижнего воздушного пространства по России и ближнему зарубежью;
- система верификации прогнозов TAF (выпускаемых синоптиками официальных АМСГ РФ и ближнего зарубежья) и AUTOTAF (выпускаемых сайтом Метеоцентр.Азия) - выявление ошибок, онлайн-сопоставление с фактической погодой METAR, автоматическое внесение коррективов в прогнозы при резком отклонении фактической погоды от прогноза, подсчёт оправдываемости прогнозов по элементам и в целом;
- система обработки, анализа и отображения авиаметеорологической информации для применения провайдерами метеорологической информации.


Погода в Оленеке - сегодня

Время (UTC), дата Ветер
(°,м/с) 
Видим.   Явления Облачность Т
(°С)
Тd
(°С)
f(%) Тe
(°С)
Pmin
(гПа)
dP
(гПа)
Po
(мм)
O2
(г/м3)
Тmin Tmax R s Состояние
почвы
06 27.04.17 320 (СЗ) 20000 м  {снег}  10/5 600 м средняя 
[Sc|Ac As]
+0.1 -5.8 64 -2  1008.1  0.5  736  297           
09 27.04.17 360 (С) 20000 м    10/4 600 м кучево-дожд., средняя, верхняя 
[Cb cap|Ac trans|Ci sp]
+0 -5.2 68 -2  1008.8  0.6  736  297           
12 27.04.17 320 (СЗ) н/о    н/о 
-0.3 -6 65 -3  1009.3  0.5  737  298    +1.4       
15 27.04.17 010 (С) н/о    н/о 
-3.8 -7.5 75 -7  1009.2  -0.4  736  302           
18 27.04.17 010 (С) н/о    н/о 
-7.2 -10.1 80 -11  1009.4  0.1  736  306           
21 27.04.17 010 (С) н/о    н/о 
-9.2 -12 80 -12  1008.8  -0.8  735  308           
00 28.04.17 020 (С) 4000 м  слаб. снег  10/8 330 м средняя 
[Sc|As op]
-9.9 -13 78 -13  1009.4  0.5  736  309  -10    0.4  35  равномерный
сухой снег
100% 
03 28.04.17 360 (С) 10 км  слаб. снег  10/5 300 м средняя 
[Sc|As op]
-8.4 -13.7 66 -12  1009.4  0.2  736  307           
06 28.04.17 010 (С) 20000 м  {снег}  5/0 верхняя 
[Ci fib]
-7.5 -14.6 57 -12  1009.7  0.4  736  306           
09 28.04.17 360 (С) 6{10}  20000 м    8/3 1500 м верхняя 
[Cu hum|Ci fib]
-7.4 -14.4 57 -12  1011.9  2.1  738  307           
12 28.04.17 360 (С) н/о    н/о 
-8.9 -13.7 68 -13  1014.6  2.5  740  309    -7.1       
15 28.04.17 310 (СЗ) н/о    н/о 
-11.5 -16.7 65 -13  1015.7  0.8  740  313           
00 29.04.17 280 (З) н/о    н/о 
-12.2 -17.5 65 -12  1016.9  -0.4  741  314  -15.5         
03 29.04.17 020 (С) н/о    н/о 
-8.8 -16.8 52 -9  1015.1  -1.4  740  309           
06 29.04.17 040 (СВ) н/о    н/о 
-6.8 -17.6 42 -6  1012.8  -2  739  307           
09 29.04.17 090 (В) н/о    н/о 
-6 -17.5 40 -9  1010.1  -2.6  737  305           
12 29.04.17 110 (В) н/о    н/о 
-6.2 -17.8 39 -9  1008.3  -1.8  735  305    -4.8       
15 29.04.17 090 (В) н/о    н/о 
-9.5 -18.4 48 -12  1006.7  -1.9  734  308           
18 29.04.17 090 (В) н/о    н/о 
-9.3 -17.4 52 -13  1003.7  -2.9  732  307           
21 29.04.17 090 (В) н/о    н/о 
-9.6 -15.4 63 -15  1000.8  -2.9  730  306           
00 30.04.17 070 (В) 7-10{11}  н/о    н/о 
-8.3 -11.6 77 -14  997.7  -2.9  727  303  -10.1         
03 30.04.17 070 (В) 8-11{12}  н/о    н/о 
-5.3 -8.8 76 -11  995.2  -2  726  299           
06 30.04.17 060 (СВ) 7-10{14}  н/о    н/о 
-3.8 -8.5 70 -8  994.7  -0.3  726  297           
09 30.04.17 040 (СВ) 8-12{13}  н/о    н/о 
-4.2 -8.6 71 -9  996  1.2  727  298           
12 30.04.17 030 (СВ) 9-13{14}  н/о    н/о 
-5.1 -8.5 77 -11  997.5  1.4  728  300    -3.7       
Время (UTC), дата Ветер
(°,м/с) 
Видим.   Явления Облачность Т
(°С)
Тd
(°С)
f(%) Тe
(°С)
Pmin
(гПа)
dP
(гПа)
Po
(мм)
O2
(г/м3)
Тmin Tmax R s Состояние
почвы

Для получения пояснительной информации подведите курсор к названию столбца.

ПОГОДА в Оленеке - архив

Всё, что Вы хотите узнать о погоде в Оленеке - удобно и подробно!

Выберите нужную дату (начиная с 1 января 2015* года) и нажмите кнопку "Найти".
Будут отображены архивные сводки погоды по пункту Оленек, начиная с указанной даты.


Отображать данные в формате CSV (для использования в таблицах Excel)


Внимание! Наш архив погоды предназначен исключительно для личного некоммерческого использования в познавательных целях. Если Вам необходимы официальные справки о состоянии погоды (для производственных, юридических, коммерческих и т.п. целей), обращайтесь в органы Росгидромета.

*Примечание: данная дата относится к архиву по метеостанциям СССР (Россия, СНГ, Балтия).
Архив по метеостанциям Зарубежной Европы и Азии (кроме Китая) хранится 10 дней, по другим регионам земного шара (Китай, Африка, Америка, Австралия, Океания) - 1 день.

Оленек - район местоположения метеостанции


Название, широта, долгота, высота метеостанции:
Оленек 68.5°ш. 112.4°д. 220 м над ур. моря [Российская Федерация]

Дополнительная информация

В oтличие oт бoльшинства пoгoдных сайтoв мы публикуем пoдрoбную метеoинфoрмацию в детальнoм прoфессиoнальнoм фoрмате.

Характеристики температуры и влажнoсти вoздуха измеряются на высoте 2 м в тени вдали oт зданий и деревьев.
Скoрoсть ветра измеряется на высoте 10 м (на урoвне рoста челoвека скoрoсть ветра ниже в 1.5-2 раза). Если метеoстанция нахoдится в гoрoде или в лесу, тo скoрoсть ветра занижена на 2-4 м/с пo сравнению с oткрытым местoм. Скoрoсть ветра над акватoриями крупных рек и oзёр, а также на вершинах хoлмoв на 2-5 м/с выше, чем в oбычных услoвиях.
Атмoсфернoе давление в разных тoчках местнoсти мoжет значительнo oтличаться oт давления на метеoстанции, в зависимoсти oт услoвий рельефа (при пoдъёме на 10 м давление пoнижается примернo на 1 мм рт.ст.).